EHI
0 0 0 0 0 0 0 0 0 0 0 0 0 0 0 0 0 0 1 1 2 6 12 19 25 29 31 30 25 20 18 16 14 10 8 6 5 4 4 4 3 3 2 2 2 2 2 2 2
0 0 0 0 0 0 0 0 0 0 0 0 0 0 0 0 0 1 2 2 3 8 14 19 24 28 31 32 28 22 19 19 16 12 9 7 5 5 4 3 3 2 1 1 1 1 1 1 1
0 0 0 0 0 0 0 0 0 0 0 0 0 0 0 0 0 1 2 3 5 10 16 21 25 29 32 34 31 24 21 20 17 14 11 8 6 4 3 2 2 1 0 0 0 0 0 0 0
0 0 0 0 0 0 0 0 0 0 0 0 0 0 0 0 0 2 3 3 5 10 15 21 27 30 33 35 31 25 21 18 15 13 11 9 6 4 3 1 1 1 0 0 0 0 0 0 0
0 0 0 0 0 0 0 0 0 0 0 0 0 0 0 0 1 3 4 3 4 8 13 20 25 31 33 33 29 25 20 16 13 11 10 8 6 4 3 1 0 0 0 0 0 0 0 0 0
0 0 0 0 0 0 0 0 0 0 0 0 0 0 0 0 1 2 3 1 1 4 10 16 21 26 30 30 28 24 19 15 11 9 7 7 6 4 2 1 0 0 0 0 0 0 0 0 0
0 0 0 0 0 0 0 0 0 0 0 0 0 0 0 0 0 1 2 1 1 2 5 10 14 18 21 24 24 22 17 12 9 6 5 5 6 5 2 0 0 0 0 0 0 0 0 0 0
0 0 0 0 0 0 0 0 0 0 0 0 0 0 0 0 0 2 4 4 2 1 2 6 8 11 14 17 19 17 13 9 6 4 4 4 5 4 1 0 0 0 0 0 0 0 0 0 0
0 0 0 0 0 0 0 0 0 0 0 0 0 0 0 0 1 4 7 8 5 2 2 4 6 8 10 12 14 13 10 7 4 3 3 3 3 2 0 0 0 0 0 0 0 0 0 0 0
0 0 0 0 0 0 0 0 0 0 0 0 0 0 0 1 2 4 7 9 7 4 2 3 5 6 7 8 10 10 8 5 4 3 3 3 1 0 0 0 0 0 0 0 0 0 0 0 0
0 0 0 0 0 0 0 0 0 0 0 0 0 0 0 1 2 3 6 8 8 5 2 2 3 4 4 6 7 6 5 4 3 3 3 2 1 0 0 0 0 0 0 0 0 0 0 0 0
0 0 0 0 0 0 0 0 0 0 0 0 0 0 0 0 1 1 3 6 6 4 3 3 3 3 3 4 5 4 3 3 3 3 2 2 1 0 0 0 0 0 0 0 0 0 0 0 0
0 0 0 0 0 0 0 0 0 0 0 0 0 0 0 0 0 0 1 3 5 4 3 3 3 3 3 3 4 3 3 3 3 3 2 1 0 0 0 0 0 0 0 0 0 0 0 0 0
0 0 0 0 0 0 0 0 0 0 0 0 0 0 0 0 0 0 0 1 3 4 4 3 2 2 3 3 4 4 3 3 3 3 2 1 0 0 0 0 0 0 0 0 0 0 0 0 0
0 0 0 0 0 0 0 0 0 0 0 0 0 0 0 0 0 0 0 0 1 3 4 4 3 3 4 4 5 5 3 2 2 1 1 0 0 0 0 0 0 0 0 0 0 0 0 0 0
0 0 0 0 0 0 0 0 0 0 0 0 0 0 0 0 0 0 0 0 0 1 3 5 5 6 6 5 6 5 3 2 1 0 0 0 0 0 0 0 0 0 0 0 0 0 0 0 0
0 0 0 0 0 0 0 0 0 0 0 0 0 0 0 0 0 0 0 0 0 0 2 5 7 8 7 6 6 5 4 2 1 0 0 0 0 0 0 0 0 0 0 0 0 0 0 0 0
0 0 0 0 0 0 0 0 0 0 0 0 0 0 0 0 0 0 0 0 0 0 2 4 6 7 7 6 5 4 3 3 2 1 0 0 0 0 0 0 0 0 0 0 0 0 0 0 0
0 0 0 0 0 0 0 0 0 0 0 0 0 0 0 0 0 0 0 0 0 0 1 2 4 6 6 6 5 3 1 1 2 2 1 1 1 0 0 0 0 0 0 0 0 0 0 0 0
0 0 0 0 0 0 0 0 0 0 0 0 0 0 0 0 0 0 0 0 0 0 0 0 2 4 5 5 4 2 1 0 1 2 2 2 2 1 0 0 0 0 0 0 0 0 0 0 0
0 0 0 0 0 0 0 0 0 0 0 0 0 0 0 0 0 0 0 0 0 0 0 0 0 1 2 2 1 1 0 0 0 1 1 1 1 1 0 0 0 0 0 0 0 0 0 0 0
0 0 0 0 0 0 0 0 0 0 0 0 0 0 0 0 0 0 0 0 0 0 0 0 0 0 0 0 0 0 0 0 0 0 0 0 1 1 0 0 0 0 0 0 0 0 0 0 0
0 0 0 0 0 0 0 0 0 0 0 0 0 0 0 0 0 0 0 0 0 0 0 0 0 0 0 0 0 0 0 0 0 0 0 0 0 1 0 0 0 0 0 0 0 0 0 0 0
0 0 0 0 0 0 0 0 0 0 0 0 0 0 0 0 0 0 0 0 0 0 0 0 0 0 0 0 0 0 0 0 0 0 0 0 0 0 0 0 0 0 0 0 0 0 0 0 0
0 0 0 0 0 0 0 0 0 0 0 0 0 0 0 0 0 0 0 0 0 0 0 0 0 0 0 0 0 0 0 0 0 0 0 0 0 0 0 0 0 0 0 0 0 0 0 0 0
0 0 0 0 0 0 0 0 0 0 0 0 0 0 0 0 0 0 0 0 0 0 0 0 0 0 0 0 0 0 0 0 0 0 0 0 0 0 0 0 0 0 0 0 0 0 0 0 0
0 0 0 0 0 0 0 0 0 0 0 0 0 0 0 0 0 0 0 0 0 0 0 0 0 0 0 0 0 0 0 0 0 0 0 0 0 0 0 0 0 0 0 0 0 0 0 0 0
0 0 0 0 0 0 0 0 0 0 0 0 0 0 0 0 0 0 0 0 0 0 0 0 0 0 0 0 0 0 0 0 0 0 0 0 0 0 0 0 0 0 0 0 0 0 0 0 0
0 0 0 0 0 0 0 0 0 0 0 0 0 0 0 0 0 0 0 0 0 0 0 0 0 0 0 0 0 0 0 0 0 0 0 0 0 0 0 0 0 0 0 0 0 0 0 0 0
0 0 0 0 0 0 0 0 0 0 0 0 0 0 0 0 0 0 0 0 0 0 0 0 0 0 0 0 0 0 0 0 0 0 0 0 0 0 0 0 0 0 0 0 0 0 0 0 0
Wind_Speed
4 3 2 3 5 3 4 6 4 2 1 1 2 7 8 5 4 5 2 7 10 10 9 10 12 12 12 12 12 12 11 11 11 11 11 11 10 10 10 10 9 9 9 9 9 9 9 9 8
2 1 4 4 5 2 6 5 5 5 4 3 3 5 6 4 2 6 4 8 12 11 9 9 12 13 13 12 12 12 11 11 11 10 10 10 10 10 9 9 9 9 8 8 8 8 8 8 7
2 1 3 4 4 6 5 4 6 4 2 2 3 4 5 5 4 5 6 10 10 9 8 10 12 12 12 12 12 12 11 11 10 10 9 9 9 9 9 9 8 8 8 8 8 7 7 7 6
2 3 3 3 5 6 5 3 2 2 1 2 4 4 3 1 4 6 10 11 11 8 7 9 12 12 12 12 11 11 10 10 10 9 9 8 8 8 8 8 8 8 7 7 7 7 6 6 6
3 3 3 2 6 5 5 5 2 1 1 1 4 5 2 4 5 10 11 12 11 8 7 9 12 12 12 11 11 10 10 10 9 9 8 8 8 8 8 7 7 7 7 6 6 6 6 5 5
3 3 3 5 6 4 4 4 2 2 2 2 5 5 1 1 6 9 10 10 10 9 7 8 11 11 11 11 10 10 9 9 9 9 8 8 8 8 7 7 7 6 6 5 5 5 5 4 4
4 4 5 5 4 4 4 3 4 4 3 3 6 7 2 2 4 8 9 9 9 8 7 6 6 8 9 10 9 9 9 8 8 8 7 7 7 7 7 6 6 5 5 5 4 4 4 4 3
4 3 3 4 5 5 2 1 2 5 4 1 5 9 7 7 5 8 8 8 8 7 7 6 5 5 5 5 8 8 8 8 7 7 6 6 6 6 6 5 5 4 4 4 4 3 3 2 2
3 3 4 5 5 4 1 1 2 1 4 3 2 5 6 9 9 10 8 6 6 6 5 6 6 5 5 4 6 6 7 6 6 5 6 5 3 3 3 3 4 4 3 3 3 2 2 2 1
4 5 7 4 3 2 1 1 0 2 3 3 3 3 6 8 10 11 11 9 8 7 6 5 6 5 4 4 4 3 3 3 3 3 3 2 2 2 3 3 4 3 3 2 2 2 2 2 0
5 7 4 3 2 1 1 2 2 3 2 4 6 6 7 7 8 10 9 9 9 8 7 6 6 5 5 3 3 2 2 2 2 3 3 2 2 1 2 1 1 1 2 1 0 1 1 1 0
4 5 4 2 1 1 0 1 2 1 4 4 6 9 8 8 8 10 10 8 7 7 7 6 6 5 5 4 3 3 2 2 2 2 3 2 2 1 1 1 1 1 1 1 0 0 0 1 1
4 3 3 3 1 2 1 2 2 4 4 1 4 6 8 8 6 6 7 7 7 7 7 7 6 6 5 4 3 3 2 3 2 2 2 3 2 2 1 1 1 1 1 1 0 0 0 1 1
5 4 3 3 2 2 2 3 2 6 3 2 4 6 7 7 7 5 6 7 7 7 7 6 7 6 6 4 4 3 3 2 2 2 2 3 3 2 2 1 1 1 1 1 1 1 1 1 1
2 1 3 4 4 3 2 6 7 7 3 4 5 6 6 6 6 8 8 8 8 8 7 7 7 6 6 5 4 3 3 3 2 2 2 3 3 3 2 2 1 1 1 1 1 0 0 0 1
2 2 3 5 5 4 6 10 7 5 6 7 6 6 6 6 7 7 7 7 7 7 7 7 6 6 6 5 4 3 3 3 2 2 2 2 3 3 3 2 2 1 1 1 1 1 1 1 1
2 4 5 4 4 4 6 8 6 4 6 7 7 7 7 6 6 6 6 7 7 8 7 7 6 7 6 5 4 3 2 2 2 2 2 2 2 3 3 2 2 2 1 1 1 0 1 1 1
7 5 5 6 4 4 6 8 7 5 5 8 7 7 7 8 9 7 6 6 6 6 7 6 6 6 5 4 3 2 2 1 1 1 2 2 2 2 2 2 1 1 1 1 1 1 1 1 1
5 5 4 5 3 3 7 9 10 7 6 7 7 7 8 9 8 6 6 6 5 5 6 6 6 5 5 4 3 3 2 1 1 1 2 2 2 2 2 2 1 1 2 2 2 1 1 1 0
4 3 4 3 2 3 5 9 9 8 8 9 9 9 9 7 5 5 5 5 6 7 7 7 7 6 5 4 3 3 3 1 1 1 1 2 2 2 2 2 2 2 1 1 1 1 1 0 0
7 7 5 4 2 2 2 7 7 6 6 7 7 8 8 10 9 7 6 6 6 6 7 7 7 6 6 5 3 3 2 2 1 0 1 1 2 2 2 2 2 2 2 2 2 2 2 2 1
7 6 6 4 2 3 1 5 7 5 5 6 7 7 7 7 8 8 7 7 7 6 5 6 6 6 5 5 5 5 4 3 3 2 1 1 2 2 2 2 2 2 2 2 2 2 2 2 1
5 4 4 4 3 2 2 3 9 3 5 7 7 7 6 6 7 8 8 8 6 5 5 5 5 5 5 5 5 5 3 2 1 1 1 1 1 1 1 1 1 1 2 2 2 2 2 2 2
4 4 3 2 2 5 7 6 8 5 7 5 4 4 5 5 5 6 6 6 5 4 4 4 5 4 4 4 4 5 5 3 3 2 1 1 0 0 1 1 1 1 1 2 2 2 2 2 2
4 6 2 0 2 7 5 6 10 6 5 6 5 4 3 4 5 6 6 5 5 5 4 4 5 4 4 4 4 4 5 5 5 4 3 2 1 1 1 1 1 1 1 1 2 2 2 2 2
5 7 7 7 6 4 3 8 7 5 3 2 3 3 3 4 4 5 6 6 5 5 4 4 5 4 3 3 3 3 4 3 3 3 3 3 2 2 1 1 1 1 1 1 1 1 1 1 2
5 5 5 5 2 2 5 4 5 2 2 2 3 4 3 3 4 4 4 4 4 4 4 4 4 3 3 3 3 2 3 3 3 3 2 2 1 1 1 1 1 0 0 0 0 0 1 1 2
3 5 4 5 5 4 4 4 4 2 1 1 2 3 2 3 3 3 3 3 3 3 2 3 3 3 3 3 3 2 2 2 3 2 3 2 2 1 1 1 0 0 0 0 0 0 1 1 2
2 2 3 3 4 5 4 5 3 4 3 4 2 2 2 3 3 3 2 2 3 3 3 2 2 3 2 2 2 2 2 2 2 2 2 2 1 2 2 1 0 0 0 0 0 1 1 2 2
2 3 4 4 4 3 3 5 3 0 2 4 3 2 2 3 3 3 3 3 3 3 3 2 2 2 2 2 2 2 1 2 2 2 1 2 2 1 1 1 1 0 0 0 1 1 2 2 3
Wind_Direction
335 2 73 61 62 62 236 241 226 209 173 196 122 107 112 112 141 159 160 143 138 141 147 142 134 131 127 122 120 118 117 114 111 109 108 108 108 107 105 104 104 102 100 98 95 96 94 92 92
15 24 65 66 102 170 252 241 224 222 189 159 102 97 89 83 92 116 129 143 139 140 143 142 134 131 128 125 123 120 118 116 114 112 111 110 109 108 106 105 103 100 99 96 96 96 95 93 93
358 104 94 91 152 193 225 231 212 220 215 156 86 73 105 131 134 140 149 140 130 132 137 139 134 133 130 128 125 122 120 119 118 116 115 115 114 111 109 108 105 101 100 99 99 97 95 94 92
59 65 68 108 222 226 220 222 179 145 75 81 107 70 70 126 161 144 136 134 127 129 133 137 132 132 130 128 126 123 122 121 119 120 118 117 118 116 110 107 104 101 101 104 103 100 99 96 92
68 92 110 216 239 247 237 238 219 147 128 96 107 101 54 346 112 124 132 133 133 134 136 138 131 132 130 128 126 125 123 121 120 120 119 117 118 116 112 109 107 104 104 108 109 108 105 99 91
76 92 138 216 240 252 250 238 190 173 159 121 110 111 133 74 120 134 137 135 137 138 135 136 132 129 129 128 127 126 124 122 121 120 118 116 118 119 115 115 112 112 111 110 110 111 108 102 92
129 137 187 210 230 248 244 225 179 174 166 176 135 118 146 187 148 136 133 130 131 134 132 130 134 130 129 128 126 125 123 122 121 120 117 113 113 117 118 113 115 114 113 113 110 111 113 108 99
149 136 207 220 215 236 257 183 178 169 175 157 123 139 177 198 153 122 118 121 125 128 132 132 129 128 130 132 128 124 122 121 120 118 115 111 111 113 112 113 112 113 110 110 111 112 111 104 98
121 121 209 217 206 228 314 61 353 88 106 69 84 165 180 153 130 118 116 117 128 132 136 138 134 133 132 133 130 126 123 121 118 115 112 110 107 117 117 108 105 105 106 107 108 108 107 98 74
133 187 218 227 214 223 343 38 280 69 75 68 50 61 109 130 134 138 145 149 151 153 155 150 145 144 140 138 128 129 126 124 117 117 119 112 110 108 105 100 100 98 94 93 90 93 103 90 50
174 199 220 258 273 293 359 345 345 119 165 174 156 149 137 138 143 148 155 158 162 162 160 160 154 150 146 139 136 135 126 123 123 127 129 118 107 99 92 101 99 103 94 88 55 61 76 107 122
191 227 213 229 273 324 298 331 341 226 212 186 166 160 156 157 164 163 163 164 161 159 164 162 157 150 151 146 146 147 142 142 145 153 144 129 121 115 128 135 136 124 123 117 96 125 180 181 209
220 241 233 236 235 241 260 253 256 258 256 188 143 156 171 176 178 175 165 164 161 163 167 166 157 153 152 147 152 148 156 158 160 157 161 149 148 155 155 159 151 153 142 159 175 203 233 236 242
211 222 263 264 252 239 227 263 238 249 225 165 164 181 189 189 184 175 170 169 170 171 172 166 160 158 152 153 156 158 161 158 151 161 174 165 161 160 159 158 164 176 183 183 180 199 214 240 239
154 173 285 250 222 223 179 269 235 232 205 203 205 207 207 204 192 188 186 178 175 172 169 167 165 157 154 155 158 155 162 157 156 167 171 167 166 164 161 162 176 200 193 182 171 212 192 285 278
120 147 239 253 196 192 166 248 253 225 196 218 221 219 216 218 207 200 191 182 175 166 167 170 163 156 157 155 154 152 156 154 160 162 162 164 165 164 159 164 186 193 174 177 183 193 192 249 275
169 196 217 256 205 178 184 239 258 228 195 219 223 220 217 219 218 209 191 180 174 170 168 168 162 161 160 155 149 144 146 154 165 160 162 169 165 161 157 169 186 171 161 179 199 197 187 218 258
193 196 204 222 218 180 210 245 266 259 221 224 223 221 217 214 216 204 191 180 173 168 164 162 159 161 154 142 128 116 112 141 161 170 174 165 166 161 151 158 171 161 158 177 190 203 219 213 227
173 180 211 233 234 196 227 248 259 257 245 236 229 219 217 221 221 199 186 175 166 162 161 163 159 163 152 145 146 144 158 174 176 190 182 173 170 166 156 160 163 165 177 192 191 190 195 269 106
210 211 234 271 260 213 245 259 260 248 233 224 218 216 214 215 216 201 183 174 173 173 170 166 166 166 164 165 163 157 155 168 181 187 189 183 174 171 163 163 173 183 186 194 198 169 165 234 131
219 209 211 220 337 343 302 289 262 259 238 234 227 217 209 202 200 194 181 180 173 175 175 172 172 168 165 154 129 105 82 63 59 175 203 203 179 174 176 177 175 189 187 200 210 190 176 195 234
225 213 199 195 171 266 186 274 277 257 263 240 232 222 213 205 190 182 173 172 173 179 171 162 163 160 158 149 150 153 158 174 201 200 205 209 181 176 184 184 185 191 198 206 215 203 196 175 202
195 179 181 190 177 251 236 232 277 274 248 245 231 219 211 198 183 178 176 173 165 159 155 149 144 147 152 154 158 159 159 171 166 162 170 193 201 175 175 174 177 201 208 213 211 209 202 189 193
153 95 63 60 115 243 217 200 269 240 226 236 226 209 199 185 175 170 164 150 141 136 136 139 139 144 152 154 159 164 165 164 158 177 191 208 216 231 188 149 168 224 210 208 209 209 206 210 207
135 123 109 190 219 242 200 198 247 253 244 215 196 186 180 162 157 153 150 148 147 145 146 148 147 151 157 158 167 175 176 175 181 187 191 186 198 224 219 150 186 234 224 213 204 198 208 208 209
183 159 166 184 203 250 201 219 250 276 267 175 146 139 122 128 144 152 157 154 155 154 151 152 155 157 161 161 176 181 179 179 189 189 183 185 196 212 203 177 190 220 231 240 204 194 224 216 215
157 191 171 137 150 203 241 262 299 350 52 74 87 95 100 110 122 135 142 142 146 151 157 162 159 156 166 169 168 170 173 175 181 180 176 183 183 176 160 152 147 170 220 229 204 216 235 220 233
155 154 130 149 164 213 249 238 229 245 204 129 107 102 84 83 94 101 122 135 136 137 129 134 147 156 163 159 163 159 171 170 167 162 168 169 164 149 143 127 113 101 316 50 355 273 252 225 249
141 149 144 153 169 169 206 250 241 221 187 154 138 118 114 100 96 97 98 109 106 95 98 105 122 126 132 137 139 138 159 153 148 154 160 154 141 139 137 142 157 324 350 360 344 286 280 261 267
156 169 146 164 211 184 179 261 322 167 130 119 106 82 83 90 89 89 87 91 89 90 87 88 97 110 122 126 121 123 121 118 124 134 138 128 127 126 130 134 109 15 330 307 265 273 280 269 268